STARLINK-32341, 61639

Orbit data source: Space-Track

STARLINK-32341, 61639 is a payload satellite owned by SpaceX/Seattle (US) in LEO that was launched on Wed, 23 Oct 2024 UTC via an FALCON 9 launch vehicle from the Air Force Eastern Test Range (AFETR). Payload-class satellites include a variety of spacecraft equipped with specific instruments for various scientific and technological missions. These include communications satellites like Starlink; space stations such as the ISS; scientific satellites like the Hubble; Earth observation satellites from companies like Planet Labs, Umbra, and HawkEye 360; GPS; miniature CubeSats for education and research; and military/defense satellites.

Loading next visibility...
Identifier
61639, 2024-191U
Orbit
LEO
Country
Flag of USUS
Related business
Manufacturer
SpaceX/Seattle
Mission
Operational Commercial Communications
Bus & Motor
STARLINK V2M, Unknown motor
Mass
730 kg wet, ~700 kg dry
Launch date (UTC)
2024-10-23 (1 year ago)
Launch vehicle
FALCON 9
Launch site
Air Force Eastern Test Range (AFETR)
Object type
Payload
Rocket body
Debris
Shape & HBR
Box + 2 Pan, 17.7 m
Radar Cross Section
33.884 m², Large (>1 m²)

Expand to show TLE details & history
Last TLE update: 22 hours ago

TLE from 22 hours ago
0 STARLINK-32341
1 61639U 24191U   25286.22987247 -.00002585  00000-0 -84452-4 0  9995
2 61639  43.0033 267.3386 0001221 271.5409  88.5303 15.27574153 54982
Epoch: 2025-10-13T05:31Z
TLE epoch observation values (Epoch: 2025-10-13T05:31:00.981Z)
Latitude
-0°
Longitude
162.54887°
Altitude
482.821 km
Speed
7.626 km/s
True Right ascension
17h 49m 21s
True Declination
0° 00' 00"
Sunlit
Object was in daylight at epoch
Visualization orbit readout
Latitude
Unknown
Longitude
Unknown
Altitude
Unknown
Speed
Unknown
Apparent Right ascension
Unknown
Apparent Declination
Unknown
Sunlit
N/A
Visualization observer readout
Local Sidereal Time
22:31:40
Azimuth
Unknown
Elevation
Unknown
Doppler factor
Unknown
Orbital elements
Apogee altitude
485.849 km
Perigee altitude
484.173 km
Semi-major axis
6,863.148 km
Eccentricity
0.00012
Inclination
43.0033°
RAAN
267.3386°
Arg. of periapsis
271.5409°
True anomaly
88.54429°
Mean anomaly
88.5303°
Eccentric anomaly
88.53729°
Mean motion
3.81732 °/min
Orbital period
94.31 mins
BSTAR
-0.000084452
Loading maneuver chart data...
Computing Atmospheric mass density...
Loading historical data...
Loading historical data...
Loading historical data...
Loading historical data...
Loading historical data...
Loading historical data...
Loading historical data...

Documentation

Showing up to 5 results
|